Home > Time Zones > World Clock > Weather > Iran > Tehran > Past weeks

Flag for Iran Weather past 2 weeks in Tehran, Iran

Now
90 °F

Passing clouds.


Feels Like: 86 °F
Forecast: 63 / 87 °F
Wind: 9 mph from South

Location: Tehran-Mehrabad

Current Time: Sep 30, 2014 at 3:12:11 PM

Latest Report: Sep 30, 2014 at 2:30 PM


Visibility: N/A

Pressure: 30.01 "Hg

Humidity: 12%

Dew point: 30 °F

Location of TehranLocation

Historic Weather in Tehran — Graph

°F

Tehran temperature yesterday

Maximum temperature yesterday: 91 °F (at 3:30 PM)
Minimum temperature yesterday: 70 °F (at 5:30 AM)
Average temperature yesterday: 82 °F

Past Weeks' High & Low Weather Summary

 TemperatureHumidityPressure
High93 °F (Sep 15, 3:30 PM)59% (Sep 27, 2:30 AM)30.18 "Hg (Sep 27, 2:30 AM)
Low63 °F (Sep 27, 2:30 AM)6% (Sep 15, 4:30 PM)29.77 "Hg (Sep 16, 6:30 PM)
Average80 °F20%29.94 "Hg
* Reported Sep 15 2:30 PM — Sep 30 2:00 PM, Tehran, Weather by CustomWeather, © 2014

Note: Actual official high and low records may vary slightly from our data, if they occured in-between our weather recording intervals... More about our weather records

Advertising

Tehran weather history for previous 24 hours

 ConditionsComfort  
Time TempWeatherWind HumidityBarometerVisibility
2:00 PM
Sep 30
90 °FPassing clouds.5 mph12%30.04 "HgN/A
1:30 PM88 °FPassing clouds.9 mph13%30.04 "HgN/A
1:00 PM88 °FPassing clouds.9 mph15%30.04 "Hg5 mi
12:30 PM86 °FPassing clouds.9 mph15%30.07 "Hg5 mi
12:00 PM88 °FPassing clouds.9 mph15%30.07 "Hg5 mi
11:30 AM86 °FPassing clouds.9 mph17%30.09 "Hg4 mi
11:00 AM84 °FPassing clouds.9 mph19%30.09 "Hg4 mi
10:30 AM86 °FPassing clouds.7 mph17%30.09 "Hg4 mi
10:00 AM84 °FSunny.5 mph18%30.09 "Hg4 mi
9:30 AM81 °FSunny.5 mph23%30.09 "Hg4 mi
9:00 AM79 °FSunny.5 mph30%30.09 "Hg5 mi
8:30 AM81 °FSunny.7 mph15%30.09 "Hg5 mi
8:00 AM79 °FSunny.5 mph21%30.09 "Hg5 mi
7:30 AM73 °FSunny.No wind29%30.09 "Hg5 mi
7:00 AM70 °FSunny.No wind35%30.07 "Hg10 mi
6:30 AM68 °FSunny.9 mph38%30.07 "Hg10 mi
6:00 AM70 °FClear.No wind25%30.07 "Hg10 mi
5:30 AM70 °FClear.No wind25%30.07 "Hg10 mi
5:00 AM73 °FClear.7 mph20%30.04 "Hg10 mi
4:30 AM72 °FClear.5 mph22%30.04 "Hg10 mi
4:00 AM72 °FClear.5 mph23%30.04 "Hg10 mi
3:30 AM72 °FClear.5 mph23%30.04 "Hg10 mi
3:00 AM75 °FClear.5 mph22%30.04 "Hg10 mi
2:30 AM75 °FClear.5 mph22%30.04 "Hg10 mi
2:00 AM75 °FClear.7 mph25%30.04 "Hg10 mi
1:30 AM75 °FClear.7 mph25%30.04 "Hg10 mi
1:00 AM73 °FClear.5 mph25%30.04 "Hg10 mi
12:30 AM75 °FClear.5 mph22%30.04 "Hg10 mi
12:00 AM77 °FClear.5 mph15%30.04 "Hg10 mi
11:30 PM
Sep 29
79 °FClear.5 mph13%30.04 "Hg10 mi
11:00 PM79 °FClear.5 mph15%30.04 "Hg10 mi
10:30 PM81 °FClear.5 mph14%30.04 "Hg10 mi
10:00 PM82 °FClear.7 mph12%30.04 "Hg10 mi
9:30 PM81 °FClear.5 mph14%30.04 "Hg10 mi
9:00 PM82 °FClear.7 mph12%30.04 "Hg10 mi
8:30 PM82 °FClear.5 mph12%30.04 "Hg10 mi
8:00 PM82 °FClear.7 mph12%30.04 "Hg10 mi
7:30 PM84 °FClear.5 mph11%30.01 "Hg10 mi
7:00 PM86 °FPassing clouds.7 mph10%30.01 "HgN/A
6:30 PM86 °FPassing clouds.5 mph11%30.01 "HgN/A
6:00 PM88 °FSunny.5 mph10%30.01 "Hg10 mi
5:30 PM90 °FSunny.9 mph9%30.01 "Hg10 mi
5:00 PM90 °FSunny.12 mph8%30.01 "Hg10 mi
4:30 PM90 °FSunny.12 mph8%30.01 "Hg10 mi
4:00 PM91 °FSunny.14 mph8%30.01 "Hg10 mi
3:30 PM91 °FSunny.12 mph8%30.01 "Hg10 mi
3:00 PM90 °FSunny.12 mph8%30.01 "Hg10 mi
Weather by CustomWeather, © 2014

See weather overviewHow to use our weather pages